www.pogodaiklimat.ru

Погода и климат >> Архив погоды >> Гондурас >> Yoro


ПОГОДА в Yoro

  • Прогноз погоды в Yoro
  • Монитор погоды в Yoro
  • Климат города

АРХИВ ПОГОДЫ в Yoro

Время (UTC), дата Ветер
(напр.,м/с)
 
Видим.   Явления Облачность Т
(С)
Тd
(С)
f
(%)
Тe
(С)
Тes
(С)
Комфортность P
(гПа)
Po
(гПа)
Тmin
(С)
Tmax
(С)
R
(мм)
R24
(мм)
S
(см)
15 11.10 З 2 10 км дымка {туман} 8/4 600 м
[Sc diur, vesp Ac As]
+23.2 +21.5 90 +31 +34 очень
душно
1014.4 938.7
18 11.10 С 2 10 км мгла {туман} 6/6 750 м
[Cu med, cong]
+28.0 +20.8 65 +35 +42 очень
душно
1012.3 937.7 +19.0 +28.0
21 11.10 З 2 20 км осадки на расстоянии {дождь, туман} 8/5 750 м
[Cu med, cong Ac As]
+24.2 +22.0 88 +31 +34 очень
душно
1011.5 936.6 3
00 12.10 В 2 8000 м гроза, ливневой дождь 10/6 600 м
[Cb cap As op]
+19.2 +19.2 100 +22 +22 комфорт 1012.5 937.4 +19.0 +28.6 29
15 12.10 10 км дымка {туман} 8/4 600 м
[Sc diur, vesp Ac trans]
+21.8 +21.5 98 1014.0 938.5
18 12.10 З 2 10 км мгла {туман} 5/5 750 м
[Cu med, cong]
+28.0 +21.4 67 +35 +45 очень
душно
1011.2 939.7 +19.8 +28.0
21 12.10 З 4 10 км осадки на расстоянии {туман} 6/6 750 м
[Cu med, cong]
+26.4 +22.6 80 +35 +37 очень
душно
1011.2 936.5
00 13.10 ЮВ 2 10 км гроза без осадков {дождь} 8/5 600 м
[Cb cap Ac cuf]
+21.0 +20.7 98 +27 +27 душно 1013.1 937.8 +19.8 +28.6 24
12 13.10 Ю 1 10 км дымка 5/5 600 м
[Sc]
+21.0 +21.0 100 +28 +28 очень
душно
1013.3 938.1 +21.0 +28.6
15 13.10 З 2 10 км мгла {туман} 6/6 700 м
[Cu med, cong]
+24.2 +22.4 90 +32 +35 очень
душно
1013.9 939.1
18 13.10 З 2 10 км мгла {туман} 6/6 750 м
[Cu med, cong]
+27.0 +21.8 73 +35 +42 очень
душно
1013.4 938.5 +21.0 +27.0
21 13.10 С 2 10 км мгла {туман} 6/6 750 м
[Cu med, cong]
+28.8 +22.1 67 +37 +40 очень
душно
1012.0 937.6
00 14.10 СВ 2 15 км осадки на расстоянии {туман} 8/5 700 м
[Cu med, cong Ac As]
+23.0 +21.0 89 +31 +31 очень
душно
1012.5 938.0 +21.0 +28.8
18 14.10 З 2 10 км мгла {туман} 6/6 750 м
[Cu med, cong]
+27.0 +21.5 72 +34 +42 очень
душно
1015.2 940.4 +20.0 +27.0
12 15.10 В 1 10 км дымка 4/4 600 м
[Sc]
+19.2 +18.9 98 +22 +22 комфорт 1014.7 939.4 +19.0 +30.0
18 15.10 С 2 10 км мгла {туман} 5/5 750 м
[Cu med, cong]
+29.4 +21.1 61 +37 +46 очень
душно
1014.2 939.6 +19.0 +29.4
21 15.10 СВ 4 10 км мгла {туман} 6/6 750 м
[Cu med, cong]
+29.0 +21.3 63 +37 +39 очень
душно
1011.8 938.3
00 16.10 В 2 10 км мгла {туман} 5/5 750 м
[Cu med, cong]
+27.0 +21.5 72 +34 +34 очень
душно
1011.5 937.6 +19.0 +30.2
12 16.10 штиль 0 10 км дымка 8/5 600 м
[Sc Ac As]
+21.0 +21.0 100 +26 +26 душно 1014.1 938.7 +20.5 +30.2
15 16.10 Ю 2 10 км мгла {туман} 5/5 700 м
[Cu med, cong]
+25.8 +21.1 75 +32 +38 очень
душно
1014.1 939.8
18 16.10 В 1 10 км мгла {туман} 6/6 750 м
[Cu med, cong]
+28.0 +22.0 70 +36 +45 очень
душно
1012.3 938.2 +20.5 +28.4
21 16.10 В 3 10 км мгла {туман} 5/5 750 м
[Cu med, cong]
+30.2 +21.4 59 +38 +41 очень
душно
1004.6 936.7
00 17.10 С 2 10 км мгла {туман} 6/6 700 м
[Cu med, cong]
+26.0 +21.6 77 +33 +33 очень
душно
1011.7 937.4 +20.5 +30.4
12 17.10 В 1 10 км дымка 6/6 600 м
[Sc]
+21.4 +21.4 100 +27 +27 душно 1014.1 938.6 +21.0 +30.4
15 17.10 В 2 10 км мгла {туман} 4/4 700 м
[Cu med, cong]
+26.2 +21.5 75 +33 +39 очень
душно
1013.9 939.3
18 17.10 С 2 10 км мгла {туман} 6/6 750 м
[Cu med, cong]
+30.0 +21.2 59 +38 +45 очень
душно
1011.8 938.0 +21.0 +30.0
21 17.10 В 2 10 км мгла {туман} 5/5 750 м
[Cu med, cong]
+30.5 +21.3 58 +38 +42 очень
душно
1009.6 936.4
00 18.10 В 3 10 км мгла {туман} 6/6 750 м
[Cb cap]
+26.0 +22.0 79 +34 +34 очень
душно
1011.7 937.1 +21.0 +30.5

 

Местоположение метеостанции Yoro (Гондурас): широта 15.17 долгота -87.11 высота над уровнем моря 670 м.

В архиве по умолчанию представлена погода в Yoro за последнюю неделю. Архивные данные за месяц целиком и за предыдущие месяцы, начиная с января 2011 года, Вы можете получить, выбрав интересующий диапазон дат из раскрывающегося списка и нажав кнопку "Ввод!".

Внимание! Время в таблицах - всемирное. Для получения местного времени необходимо прибавить поправку, которая в Yoro равна -6 ч.

Смотрите также архив погоды в соседних городах и на ближайших метеорологических станциях:

Погода в La Ceiba (Гондурас) (68 км)
Погода в Tela (Гондурас) (73 км)
Погода в La Mesa (Гондурас) (93 км)
Погода в Tegucigalpa (Гондурас) (125 км)
Погода в Catacamas (Гондурас) (130 км)
Погода в Roatan (Гондурас) (143 км)
Погода в La Esperanza (Гондурас) (147 км)
Погода в Trujillo (Гондурас) (152 км)
Погода в Puerto Barrios (Гватемала) (171 км)
Погода в Santa Rosa De Copan (Гондурас) (185 км)

Пояснения к столбцам:

Ветер - указаны скорость ветра в м/с - средняя за 10 мин, порывы в срок и между сроками (в фигурных скобках) и направление, откуда дует ветер: С - северный, СВ - северо-восточный, В - восточный, ЮВ - юго-восточный, Ю - южный, ЮЗ - юго-западный, З - западный, СЗ - северо-западный.
Видимость - горизонтальная дальность видимости в метрах или километрах. При видимости от 1 до 10 км при отсутствии осадков обычно наблюдается дымка, при ухудшении видимости до 1 км и менее - туман. В сухую погоду видимость может ухудшаться дымом, пылью или мглою.
Явления - указаны атмосферные явления, наблюдавшиеся в срок или в последний час перед сроком; фигурными скобками обозначены явления, наблюдавшиеся между сроками (за 1-3 часа до срока); квадратными скобками обозначены град или гололедные отложения с указанием их диаметра в мм.
Облачность - указаны через наклонную черту общая и нижняя облачность в баллах и высота нижней границы облаков в метрах; квадратными скобками обозначены формы облаков: Ci - перистые, Cs - перисто-слоистые, Cc - перисто-кучевые, Ac - высококучевые, As - высокослоистые, Sc - слоисто-кучевые, Ns - слоисто-дождевые, Cu - кучевые, Cb - кучево-дождевые. Подробнее классификацию облаков см. в Атласе облаков (PDF).
T - Температура воздуха - температура, измеренная на высоте 2 м над землей.
Td - Температура точки росы - температура, при понижении до которой содержащийся в воздухе водяной пар достигнет насыщения.
f - Относительная влажность воздуха - влажноcть воздуха, измеренная на высоте 2 м над землей.
Te - Эффективная температура - температура, которую ощущает одетый по сезону человек в тени. Характеристика душности погоды. При расчете учитывается влияние влажности воздуха и скорости ветра на теплоощущения человека.
Tes - Эффективная температура на солнце - температура, которую ощущает человек, с поправкой на солнечный нагрев. Характеристика знойности погоды. Зависит от высоты солнца над горизонтом, облачности и скорости ветра. Ночью, в пасмурную погоду, а также при ветре 12 м/с и более поправка равна нулю.
P - Атмосферное давление - приведенное к уровню моря атмосферное давление.
Po - Атмосферное давление - измеренное на уровне метеостанции атмосферное давление.
Tmin - Минимальная температура - минимум температуры воздуха на высоте 2 м над землей.
Tmax - Максимальная температура - максимум температуры воздуха на высоте 2 м над землей.
R - Количество осадков - Количество выпавших осадков за период времени, мм. При наведении курсора мыши на число - период времени, за который выпало указанное количество осадков.
R24 - Количество осадков - Количество выпавших осадков за 24 часа, мм.
S - Снежный покров - Высота снежного покрова, см. При наведении курсора мыши на число - состояние снежного покрова и степень покрытия местности в баллах.